[[{"header":{"parameterUnit":"m.s-1","parameterCategory":1,"la1":30.2991,"la2":30.254,"lo1":-89.0895,"lo2":-89.0444,"dy":0.0017,"dx":0.0017,"nx":28,"ny":28,"refTime":"2024-07-31T09:00:00:Z","depth":0,"parameterNumber":2,"parameterNumberName":"U-component_of_WINDS"},"data":[0,0,0,0,0,0,0,0,0,0,0,0,0,0,0,0,0,0,0,0,0,0,0,0,0,0,0,0,0,0,0,0,0,0,0,0,0,0,0,0,0,0,0,0,0,0,0,0,0,0,0,0,0,0,0,0,0,0,2.8639,2.864,0,2.875,2.8751,2.8752,2.8679,2.8676,2.8673,2.8669,2.8789,2.8795,2.8801,0,0,0,0,0,0,0,0,0,0,0,0,0,2.8367,2.8373,2.8639,2.864,2.8641,2.875,2.8751,2.8753,2.868,2.8676,2.8672,2.8668,2.8787,2.8794,2.8802,0,0,0,0,0,0,0,0,0,0,0,0,0,2.8483,2.8375,2.8638,2.8618,2.8617,2.8749,2.8751,2.8753,2.8681,2.8676,2.8671,2.8666,2.8784,2.8793,2.8803,2.8963,0,0,2.8832,2.8836,0,0,0,0,0,0,0,0,2.8476,2.8493,2.862,2.862,2.8619,2.8695,2.8699,2.8824,2.8682,2.8657,2.8669,2.8663,2.8762,2.8773,2.8805,2.8968,2.8973,2.8832,2.8838,2.8842,2.8845,0,0,0,0,0,0,0,2.8468,2.8488,2.8683,2.8622,2.8621,2.8605,2.8615,2.8723,2.8737,2.8659,2.8654,2.8667,2.8761,2.8796,2.8807,2.8975,2.8832,2.8841,2.8847,2.885,2.9274,2.928,0,0,0,0,0,0,2.8462,2.8481,2.8679,2.8686,2.8534,2.8614,2.8626,2.8676,2.8735,2.8739,2.8672,2.8664,2.8783,2.8796,2.8811,2.9002,2.8842,2.8851,2.8857,2.9269,2.9275,2.9281,0,0,0,0,0,0,2.8456,2.848,2.8675,2.8582,2.8606,2.8624,2.8681,2.8681,2.8716,2.8745,2.8748,2.8705,2.8779,2.8798,2.8925,2.9005,2.8855,2.8864,2.9262,2.9271,2.9278,2.9385,0,0,0,0,0,0,2.8448,2.8478,2.8538,2.8584,2.8611,2.8786,2.8686,2.8687,2.8732,2.8723,2.8777,2.8781,2.8777,2.8911,2.8934,2.9015,2.8871,2.9255,2.9266,2.9276,2.9374,2.9396,2.9414,0,0,0,0,0,2.8439,2.8565,2.8542,2.8566,2.8686,2.879,2.8806,2.8797,2.8739,2.88,2.8818,2.8779,2.8992,2.8925,2.895,2.9035,2.925,2.9263,2.9275,2.9365,2.9391,2.9414,0,0,0,0,0,0,2.8531,2.8571,2.8545,2.869,2.8737,2.8778,2.8855,2.8825,2.8891,2.8879,2.8867,2.888,2.9012,2.9037,2.896,2.9193,2.9112,2.9131,2.9172,2.9197,2.9217,2.9208,2.8879,0,0,0,0,0,2.8567,2.8647,2.8678,2.8803,2.8828,2.8837,2.8882,2.8871,2.892,2.894,2.8968,2.9018,2.9096,2.9148,2.9222,2.9377,2.9388,2.9448,2.9468,2.9484,2.95,2.9584,2.9611,2.9323,2.9323,2.9322,0,0,2.8645,2.8677,2.8728,2.8822,2.8857,2.8941,2.8855,2.8947,2.9009,2.8955,2.9075,2.9098,2.9153,2.9295,2.9358,2.9319,2.9582,2.95,2.9513,2.952,2.9599,2.9627,2.9651,2.9331,2.933,2.9328,0,0,2.8828,2.886,2.8967,2.9003,2.9056,2.9062,2.9087,2.9133,2.9145,2.9265,2.9225,2.93,2.9435,2.9476,2.9514,2.9712,2.9678,2.9736,2.9841,2.9922,2.9944,2.9964,3.0034,3.006,2.9752,2.9752,2.9752,0,2.8918,2.9041,2.9026,2.9121,2.9164,2.9115,2.9224,2.926,2.9336,2.9367,2.9322,2.9489,2.9523,2.9673,2.9721,2.9754,2.9783,2.973,2.9942,2.9962,2.9981,3.0047,3.0074,2.9759,2.9758,2.9757,2.9757,0,2.9148,2.9234,2.9314,2.9386,2.9438,2.9539,2.9541,2.9595,2.9579,2.959,2.9713,2.9752,2.9832,2.9867,2.9853,3.0015,2.9988,2.9943,2.9862,3.0015,3.0077,3.0103,2.9768,2.9766,2.9764,2.9762,0,0,2.9394,2.9454,2.9484,2.9515,2.957,2.9637,2.9736,2.9812,2.9859,2.9913,2.9996,3.0111,3.0068,3.0112,3.0102,3.0174,3.0327,3.0119,3.012,3.0156,3.0507,3.0541,3.057,3.0305,3.0309,3.0313,3.0502,0,2.958,2.9751,2.974,2.9901,2.998,2.9935,3.0021,3.0065,3.0077,3.0147,3.0161,3.0242,3.0181,3.0206,3.0275,3.0293,3.0397,3.028,3.0383,3.0387,3.037,3.0603,3.0639,3.0816,3.0526,3.053,3.0533,0,2.982,2.9879,3.0048,3.0089,3.0122,3.02,3.0268,3.0335,3.0384,3.0388,3.0436,3.0414,3.0515,3.0431,3.057,3.0491,3.0532,3.0548,3.0554,3.0564,3.0469,3.0618,3.0872,3.0898,3.0572,3.0569,3.0566,0,2.9981,3.0103,3.022,3.0248,3.03,3.0355,3.038,3.0423,3.0469,3.0529,3.0559,3.0631,3.0671,3.0728,3.0726,3.0665,3.0868,3.0784,3.0874,3.0874,3.0919,3.0916,3.1182,3.0947,3.0946,3.0946,3.0945,0,3.019,3.0295,3.0292,3.0364,3.048,3.0467,3.0583,3.0602,3.064,3.0716,3.0682,3.0753,3.0747,3.0819,3.0819,3.0934,3.0953,3.0959,3.0958,3.0962,3.0962,3.0989,3.0977,3.0953,3.0951,3.095,3.0948,0,3.039,3.0393,3.0516,3.0554,3.0566,3.065,3.0683,3.0751,3.0759,3.0855,3.0877,3.0891,3.0975,3.0978,3.1076,3.1075,3.1215,3.12,3.1198,3.1195,3.1286,3.1277,3.1579,3.1618,3.1357,3.1359,3.1361,0,3.0523,3.0602,3.0648,3.0694,3.0721,3.0798,3.0844,3.0834,3.0884,3.0944,3.1005,3.1085,3.1148,3.1284,3.1304,3.1378,3.1364,3.1465,3.1375,3.1377,3.1365,3.136,3.1368,3.1483,3.1485,3.1488,3.149,0,3.0759,3.0756,3.0822,3.089,3.0945,3.0998,3.1047,3.1088,3.1084,3.1141,3.1225,3.1274,3.1371,3.1451,3.1523,3.1549,3.152,3.1518,3.1542,3.1548,3.1543,3.1546,3.1245,3.1511,3.1509,3.1507,3.1506,3.1505,3.093,3.0997,3.1039,3.1115,3.115,3.1196,3.1261,3.1277,3.1346,3.1423,3.1413,3.1507,3.1552,3.1645,3.1677,3.175,3.1716,3.1752,3.1761,3.177,3.1779,3.1531,3.1763,3.1763,3.1762,3.1762,3.1761,0,3.1163,3.1187,3.1257,3.1325,3.1384,3.1349,3.1401,3.1453,3.1535,3.1579,3.1641,3.1737,3.1814,3.1839,3.1914,3.1968,3.1956,3.1988,3.1984,3.199,3.1806,3.1777,3.1996,3.1996,3.1996,3.1995,3.1995,3.1995,3.1292,3.1404,3.1406,3.1535,3.1559,3.1648,3.1681,3.1724,3.1759,3.1866,3.1929,3.1944,3.1981,3.2058,3.2127,3.2132,3.2161,3.2199,3.2199,3.2027,3.2003,3.1981,3.1953,3.2205,3.2205,3.2376,3.2378,3.2379]},{"header":{"parameterUnit":"m.s-1","parameterCategory":1,"la1":30.2991,"la2":30.254,"lo1":-89.0895,"lo2":-89.0444,"dy":0.0017,"dx":0.0017,"nx":28,"ny":28,"refTime":"2024-07-31T09:00:00:Z","depth":0,"parameterNumber":3,"parameterNumberName":"V-component_of_WINDS"},"data":[0,0,0,0,0,0,0,0,0,0,0,0,0,0,0,0,0,0,0,0,0,0,0,0,0,0,0,0,0,0,0,0,0,0,0,0,0,0,0,0,0,0,0,0,0,0,0,0,0,0,0,0,0,0,0,0,0,0,0.0728,0.0729,0,0.0813,0.0814,0.0815,0.0847,0.0847,0.0847,0.0847,0.0936,0.0939,0.0941,0,0,0,0,0,0,0,0,0,0,0,0,0,0.0594,0.0596,0.0728,0.0729,0.073,0.0813,0.0814,0.0815,0.0847,0.0847,0.0847,0.0846,0.0935,0.0938,0.0941,0,0,0,0,0,0,0,0,0,0,0,0,0,0.0663,0.0597,0.0727,0.0756,0.0759,0.0813,0.0814,0.0815,0.0847,0.0847,0.0847,0.0846,0.0934,0.0938,0.0942,0.0974,0,0,0.0954,0.0956,0,0,0,0,0,0,0,0,0.0659,0.0668,0.0751,0.0754,0.0758,0.0819,0.08,0.0869,0.0848,0.0814,0.0847,0.0846,0.0898,0.0904,0.0921,0.0978,0.0982,0.0954,0.0957,0.0958,0.0959,0,0,0,0,0,0,0,0.0654,0.0664,0.0761,0.0752,0.0756,0.0765,0.0774,0.0813,0.0857,0.0817,0.0819,0.0829,0.09,0.0918,0.0924,0.0983,0.0954,0.0958,0.096,0.0962,0.107,0.107,0,0,0,0,0,0,0.0644,0.066,0.0759,0.0764,0.0706,0.0767,0.0778,0.08,0.0857,0.0865,0.0829,0.083,0.0911,0.0919,0.0927,0.0968,0.0958,0.0962,0.0964,0.1069,0.107,0.107,0,0,0,0,0,0,0.0641,0.0653,0.0755,0.0713,0.0726,0.077,0.0794,0.0802,0.082,0.0866,0.0874,0.0839,0.0911,0.0922,0.0962,0.0972,0.0964,0.0967,0.1068,0.1069,0.107,0.105,0,0,0,0,0,0,0.0637,0.0651,0.0664,0.0713,0.0728,0.0788,0.0795,0.0804,0.0826,0.0828,0.0878,0.0886,0.0912,0.0956,0.0966,0.0977,0.097,0.1068,0.1069,0.107,0.105,0.105,0.105,0,0,0,0,0,0.0632,0.0656,0.0664,0.0676,0.0745,0.0789,0.0798,0.0827,0.0827,0.084,0.0869,0.0884,0.0968,0.0959,0.0971,0.0984,0.1067,0.1069,0.107,0.105,0.105,0.105,0,0,0,0,0,0,0.0608,0.0663,0.0673,0.0713,0.0746,0.0794,0.0812,0.0826,0.086,0.0861,0.0895,0.0906,0.0944,0.0968,0.0956,0.1017,0.1019,0.1022,0.1,0.1001,0.1,0.0994,0.0974,0,0,0,0,0,0.0607,0.0638,0.0684,0.0714,0.073,0.0768,0.0788,0.0807,0.0843,0.0857,0.089,0.0925,0.0959,0.0981,0.1015,0.1053,0.1064,0.1067,0.1067,0.1067,0.107,0.1091,0.1093,0.1074,0.1074,0.1074,0,0,0.0606,0.064,0.0657,0.071,0.0738,0.0769,0.0779,0.0812,0.0836,0.0863,0.0902,0.0927,0.0968,0.1007,0.1026,0.1028,0.1078,0.1069,0.1068,0.1071,0.1093,0.1095,0.1096,0.1075,0.1075,0.1074,0,0,0.062,0.0648,0.0677,0.0704,0.0745,0.077,0.0776,0.0822,0.0839,0.088,0.09,0.0929,0.0987,0.1015,0.1037,0.1059,0.1074,0.107,0.107,0.109,0.1092,0.1093,0.1101,0.1104,0.1072,0.1072,0.1072,0,0.0614,0.0661,0.0689,0.0721,0.0743,0.0768,0.0797,0.0822,0.0873,0.0888,0.0889,0.0962,0.0992,0.1037,0.1043,0.106,0.1068,0.1065,0.1089,0.1091,0.1093,0.1101,0.1104,0.1071,0.1071,0.1071,0.1072,0,0.0651,0.0683,0.0701,0.0748,0.0773,0.0803,0.0836,0.0857,0.0874,0.0898,0.0938,0.0974,0.1015,0.1027,0.1044,0.1075,0.1075,0.1082,0.1085,0.1093,0.1101,0.1105,0.107,0.107,0.1071,0.1071,0,0,0.0654,0.0715,0.0721,0.0742,0.0789,0.0815,0.0845,0.0885,0.0902,0.0936,0.0963,0.1011,0.1017,0.1042,0.1062,0.108,0.1095,0.1085,0.1086,0.1086,0.1131,0.1125,0.1128,0.1104,0.1105,0.1105,0.1127,0,0.0674,0.0729,0.0755,0.0799,0.0829,0.0851,0.0878,0.091,0.0933,0.0962,0.0988,0.1021,0.1027,0.1042,0.1061,0.1089,0.1104,0.1088,0.113,0.1131,0.1119,0.1133,0.1127,0.1146,0.1131,0.1131,0.1132,0,0.0705,0.0738,0.0784,0.0826,0.084,0.0863,0.0901,0.0928,0.0964,0.098,0.1006,0.1025,0.1058,0.1057,0.1103,0.1091,0.111,0.1126,0.1128,0.1133,0.1132,0.1139,0.1153,0.1156,0.1137,0.1136,0.1136,0,0.0702,0.0758,0.0793,0.081,0.086,0.0876,0.0897,0.0933,0.0955,0.0988,0.1002,0.1038,0.1059,0.1087,0.1115,0.1112,0.1158,0.116,0.1172,0.1171,0.1181,0.1181,0.1199,0.1192,0.1192,0.1192,0.1192,0,0.0723,0.075,0.0792,0.0813,0.0845,0.0874,0.0904,0.0928,0.0959,0.0985,0.1007,0.1032,0.1067,0.1096,0.1118,0.1153,0.1162,0.1175,0.1181,0.1174,0.1172,0.1187,0.1186,0.1193,0.1193,0.1193,0.1192,0,0.0725,0.0754,0.0794,0.0837,0.0848,0.087,0.0907,0.0929,0.0952,0.0985,0.0995,0.1032,0.1067,0.1097,0.1144,0.1159,0.1194,0.1201,0.1182,0.1185,0.1195,0.1194,0.1225,0.123,0.1219,0.1219,0.1219,0,0.0737,0.0758,0.0803,0.0822,0.0843,0.0873,0.0895,0.0924,0.0946,0.0988,0.1005,0.1041,0.1072,0.1126,0.1158,0.1193,0.1201,0.1209,0.1207,0.1198,0.1201,0.12,0.1202,0.1209,0.1209,0.1209,0.1209,0,0.0754,0.0767,0.0797,0.0832,0.0857,0.0886,0.0916,0.093,0.0965,0.0988,0.1024,0.1047,0.1094,0.113,0.1168,0.1191,0.1206,0.121,0.1214,0.1208,0.1196,0.1202,0.1182,0.1209,0.1209,0.1209,0.1209,0.1209,0.0762,0.0781,0.0816,0.0849,0.0874,0.0901,0.0923,0.0948,0.0978,0.1018,0.1033,0.1069,0.1104,0.1157,0.1179,0.1208,0.1211,0.1217,0.1219,0.1221,0.1219,0.119,0.1215,0.1215,0.1215,0.1215,0.1215,0,0.078,0.0803,0.0832,0.0873,0.0898,0.0909,0.0942,0.0963,0.0994,0.1024,0.1054,0.1094,0.1128,0.1161,0.1197,0.1214,0.1222,0.1222,0.1222,0.1227,0.1215,0.1207,0.1216,0.1216,0.1216,0.1216,0.1216,0.1215,0.0792,0.0826,0.0843,0.0889,0.0912,0.0947,0.0965,0.099,0.1014,0.1058,0.1086,0.1107,0.1139,0.1177,0.1209,0.1218,0.123,0.1229,0.124,0.1228,0.1228,0.1227,0.122,0.1231,0.1231,0.1249,0.1249,0.1249]}]]